This is the latest recevied weather packets stored in our database for station/object N8GD. If no packets are shown the sender has not sent any weather packets the latest 1 day(s).
| Time | Temp. | Humidity | Pressure | Rain* | Wind** | Luminosity | Snow |
|---|---|---|---|---|---|---|---|
| 1778079164 | 9.44° C | 94% | 1008.9 hPa | 0 mm | - | - | - |
| 1778078264 | 9.44° C | 94% | 1008.6 hPa | 0 mm | - | - | - |
| 1778078206 | 9.44° C | 94% | 1008.6 hPa | 0 mm | - | - | - |
| 1778077304 | 8.89° C | 94% | 1008.4 hPa | 0 mm | - | - | - |
| 1778076464 | 8.89° C | 95% | 1008.1 hPa | 0.25 mm | - | - | - |
| 1778075563 | 8.33° C | 95% | 1008.3 hPa | 0.51 mm | - | - | - |
| 1778074806 | 8.33° C | 95% | 1008 hPa | 0.51 mm | - | - | - |
| 1778072864 | 8.33° C | 95% | 1007.8 hPa | 0.51 mm | - | - | - |
| 1778071064 | 8.33° C | 94% | 1007.1 hPa | 0.51 mm | - | - | - |
| 1778068363 | 9.44° C | 94% | 1006.8 hPa | 0 mm | - | - | - |
| 1778067462 | 9.44° C | 94% | 1006.6 hPa | 0 mm | - | - | - |
| 1778064763 | 10° C | 94% | 1005.4 hPa | 1.52 mm | - | - | - |
| 1778064006 | 11.11° C | 94% | 1005.5 hPa | 2.03 mm | - | - | - |
| 1778062963 | 12.78° C | 95% | 1004.8 hPa | 1.78 mm | - | - | - |
| 1778062062 | 13.33° C | 95% | 1005 hPa | 1.52 mm | - | - | - |
| 1778061124 | 13.33° C | 95% | 1004.8 hPa | 2.29 mm | - | - | - |
| 1778060262 | 13.33° C | 95% | 1004.8 hPa | 2.29 mm | - | - | - |
| 1778060229 | 13.33° C | 95% | 1004.8 hPa | 2.29 mm | - | - | - |
| 1778059364 | 13.33° C | 95% | 1004.8 hPa | 2.54 mm | - | - | - |
| 1778058462 | 13.33° C | 95% | 1004.9 hPa | 3.3 mm | - | - | - |
| 1778056228 | 13.33° C | 95% | 1005.4 hPa | 2.79 mm | - | - | - |
| 1778055708 | 13.33° C | 95% | 1005.4 hPa | 2.03 mm | - | - | - |
| 1778055328 | 13.33° C | 94% | 1005.4 hPa | 2.03 mm | - | - | - |
| 1778054429 | 13.33° C | 94% | 1005.2 hPa | 1.02 mm | - | - | - |
| 1778052306 | 13.33° C | 94% | 1004.9 hPa | 0.25 mm | - | - | - |
* Rain latest hour (hover to see other rain measurements)
** Current wind speed in m/s (hover to see current wind gust speed)